| time (UTC) | temp F | wind direction | speed knots | gust knots | rain 1hr in | rain 24hr in | rain mn in | humidity % | barometer mb |
| 20260506143500 | 51 | 56 | 2.6 | 0.0 | 0.00 | 0.00 | 0.00 | 72 | 1010.1 |
| 20260506140500 | 52 | 114 | 5.2 | 0.0 | 0.00 | 0.00 | 0.00 | 67 | 1010.0 |
| 20260506133500 | 53 | 120 | 6.1 | 0.0 | 0.00 | 0.00 | 0.00 | 60 | 1009.9 |
| 20260506130500 | 54 | 95 | 3.5 | 0.0 | 0.00 | 0.00 | 0.00 | 56 | 1009.7 |
| 20260506123500 | 55 | 96 | 6.1 | 0.0 | 0.00 | 0.00 | 0.00 | 50 | 1009.4 |
| 20260506120500 | 56 | 99 | 4.3 | 0.0 | 0.00 | 0.00 | 0.00 | 48 | 1009.2 |
| 20260506113500 | 55 | 60 | 5.2 | 0.0 | 0.00 | 0.00 | 0.00 | 48 | 1009.2 |
| 20260506110500 | 54 | 87 | 3.5 | 0.0 | 0.00 | 0.00 | 0.00 | 54 | 1009.4 |
| 20260506103500 | 53 | 46 | 2.6 | 0.0 | 0.00 | 0.00 | 0.00 | 58 | 1009.3 |
| 20260506100500 | 52 | 65 | 1.7 | 0.0 | 0.00 | 0.00 | 0.00 | 59 | 1009.5 |
| 20260506093500 | 52 | 48 | 4.3 | 0.0 | 0.00 | 0.00 | 0.00 | 57 | 1009.4 |
| 20260506090500 | 51 | 66 | 7.8 | 0.0 | 0.00 | 0.00 | 0.00 | 59 | 1009.3 |
| 20260506083500 | 50 | 58 | 7.0 | 0.0 | 0.00 | 0.00 | 0.00 | 63 | 1009.2 |
| 20260506080500 | 49 | 72 | 3.5 | 0.0 | 0.00 | 0.00 | 0.00 | 66 | 1009.0 |
| 20260506073500 | 49 | 52 | 7.8 | 0.0 | 0.00 | 0.00 | 0.00 | 65 | 1009.0 |
| 20260506070500 | 49 | 56 | 7.0 | 0.0 | 0.00 | 0.00 | 0.00 | 65 | 1009.0 |
| 20260506060500 | 48 | 43 | 1.7 | 0.0 | 0.00 | 0.00 | 0.00 | 70 | 1008.8 |
| 20260506050500 | 48 | 47 | 4.3 | 0.0 | 0.00 | 0.00 | 0.00 | 74 | 1008.9 |
| 20260506043500 | 48 | 38 | 6.1 | 0.0 | 0.00 | 0.00 | 0.00 | 76 | 1009.1 |
| 20260506040500 | 48 | 45 | 4.3 | 0.0 | 0.00 | 0.00 | 0.00 | 79 | 1008.8 |
| 20260506033500 | 48 | 50 | 3.5 | 0.0 | 0.00 | 0.00 | 0.00 | 80 | 1009.1 |
| 20260506030500 | 48 | 70 | 3.5 | 0.0 | 0.00 | 0.00 | 0.00 | 83 | 1009.1 |
| 20260506023500 | 49 | 58 | 2.6 | 0.0 | 0.00 | 0.00 | 0.00 | 79 | 1009.7 |
| 20260506020500 | 49 | 78 | 1.7 | 0.0 | 0.00 | 0.00 | 0.00 | 81 | 1009.7 |
| 20260506013500 | 49 | 47 | 3.5 | 0.0 | 0.00 | 0.00 | 0.00 | 81 | 1009.9 |
| 20260506010500 | 49 | 110 | 2.6 | 0.0 | 0.00 | 0.00 | 0.00 | 80 | 1010.1 |
| 20260506003500 | 49 | 41 | 5.2 | 0.0 | 0.00 | 0.00 | 0.00 | 81 | 1010.4 |
| 20260506000500 | 49 | 48 | 1.7 | 0.0 | 0.00 | 0.00 | 0.00 | 82 | 1010.3 |
| 20260505233500 | 50 | 18 | 4.3 | 0.0 | 0.00 | 0.00 | 0.00 | 81 | 1010.5 |
| 20260505230500 | 50 | 66 | 2.6 | 0.0 | 0.00 | 0.00 | 0.00 | 80 | 1010.4 |
| 20260505223500 | 51 | 61 | 1.7 | 0.0 | 0.00 | 0.00 | 0.00 | 79 | 1010.7 |
| 20260505220501 | 51 | 82 | 3.5 | 0.0 | 0.00 | 0.00 | 0.00 | 77 | 1010.6 |
| 20260505213502 | 52 | 83 | 2.6 | 0.0 | 0.00 | 0.00 | 0.00 | 76 | 1010.7 |
| 20260505210501 | 53 | 76 | 2.6 | 0.0 | 0.00 | 0.00 | 0.00 | 72 | 1010.9 |
| 20260505203501 | 54 | 70 | 4.3 | 0.0 | 0.00 | 0.00 | 0.00 | 69 | 1010.7 |
| 20260505200501 | 54 | 39 | 4.3 | 0.0 | 0.00 | 0.00 | 0.00 | 71 | 1010.4 |
| 20260505193500 | 54 | 64 | 3.5 | 0.0 | 0.00 | 0.00 | 0.00 | 71 | 1010.5 |
| 20260505190500 | 55 | 73 | 1.7 | 0.0 | 0.00 | 0.00 | 0.00 | 71 | 1010.5 |
| 20260505183500 | 55 | 61 | 2.6 | 0.0 | 0.00 | 0.00 | 0.00 | 71 | 1010.6 |
| 20260505180500 | 55 | 26 | 3.5 | 0.0 | 0.00 | 0.00 | 0.00 | 70 | 1010.5 |
| 20260505173500 | 56 | 43 | 4.3 | 0.0 | 0.00 | 0.00 | 0.00 | 74 | 1010.6 |
| 20260505170500 | 56 | 112 | 3.5 | 0.0 | 0.00 | 0.00 | 0.00 | 75 | 1010.5 |
| 20260505163500 | 56 | 56 | 1.7 | 0.0 | 0.00 | 0.00 | 0.00 | 74 | 1010.7 |
| 20260505160500 | 56 | 87 | 3.5 | 0.0 | 0.00 | 0.00 | 0.00 | 76 | 1011.0 |
| 20260505150500 | 57 | 74 | 0.9 | 0.0 | 0.00 | 0.00 | 0.00 | 78 | 1011.2 |